Date,TemperatureHighF,TemperatureAvgF,TemperatureLowF,DewpointHighF,DewpointAvgF,DewpointLowF,HumidityHigh,HumidityAvg,HumidityLow,PressureMaxIn,PressureMinIn,WindSpeedMaxMPH,WindSpeedAvgMPH,GustSpeedMaxMPH,PrecipitationSumIn
2013-1-1,35.5,30.2,15.9,26.1,17.7,6.1,72,60,46,29.94,29.72,14,2,22,0.01
2013-1-2,29.6,17.9,7.6,16.7,8.0,0.0,81,65,53,30.11,29.91,14,2,20,0.01
2013-1-3,24.0,12.4,3.1,10.2,0.3,-5.9,78,59,33,30.15,30.01,7,1,13,0.00
2013-1-4,37.9,26.0,12.2,24.3,18.5,8.2,91,74,54,30.00,29.82,11,1,20,0.02
2013-1-5,41.0,31.6,20.6,25.2,20.8,16.8,87,65,41,30.27,29.85,8,1,21,0.03
2013-1-6,42.1,31.0,21.4,28.6,25.1,18.1,89,79,57,30.24,29.94,7,1,15,0.02
2013-1-7,38.0,29.2,20.2,28.9,22.2,15.8,93,76,47,30.42,29.96,12,1,15,0.00
2013-1-8,45.9,32.9,20.9,29.5,26.0,19.2,96,77,50,30.38,30.26,10,1,17,0.00
2013-1-9,43.4,34.8,21.3,35.4,28.4,19.6,95,79,55,30.41,30.00,11,1,15,0.00
2013-1-10,46.0,40.4,30.6,29.0,25.1,23.3,75,55,43,30.55,30.03,12,3,22,0.00
2013-1-11,39.7,33.2,24.3,35.3,27.9,21.5,95,81,67,30.53,30.23,3,0,4,0.12
2013-1-12,41.6,38.7,36.1,40.8,37.8,35.1,98,97,95,30.24,30.13,2,0,3,0.02
2013-1-13,51.4,45.6,39.4,49.2,44.7,38.6,100,96,91,30.16,29.99,6,1,12,0.01
2013-1-14,60.8,51.1,40.8,52.0,43.2,28.0,96,76,46,30.26,29.84,9,2,14,0.00
2013-1-15,40.6,36.6,32.3,28.2,26.1,23.8,75,66,56,30.33,30.22,6,0,7,0.00
2013-1-16,32.9,31.6,29.1,31.1,28.8,23.5,96,90,69,30.25,29.83,4,0,6,0.08
2013-1-17,40.2,33.0,26.9,33.7,27.1,13.7,97,80,54,30.10,29.84,7,1,13,0.26
2013-1-18,28.1,20.9,16.2,14.0,2.8,-4.1,63,45,31,30.46,30.07,11,2,23,0.00
2013-1-19,47.8,35.6,20.7,31.9,22.3,6.8,79,59,40,30.40,29.89,13,2,21,0.02
2013-1-20,52.5,40.5,27.8,32.7,25.9,10.4,75,57,36,29.92,29.54,14,3,22,0.00
2013-1-21,27.6,23.7,19.5,19.7,10.9,4.1,91,60,41,30.11,29.81,11,1,18,0.00
2013-1-22,24.2,19.0,11.6,19.1,8.3,-1.1,93,65,40,30.09,29.76,9,2,18,0.01
2013-1-23,15.5,10.1,5.3,-0.1,-6.5,-9.9,66,47,33,30.15,30.07,11,2,17,0.00
2013-1-24,18.9,10.0,1.0,-4.3,-8.4,-11.6,62,43,28,30.24,30.07,11,3,23,0.00
2013-1-25,23.0,15.2,6.8,11.3,-5.1,-10.6,79,41,26,30.31,30.08,13,2,16,0.00
2013-1-26,23.9,16.3,9.9,12.0,2.9,-6.0,92,58,31,30.24,30.01,14,2,16,0.00
2013-1-27,29.8,19.9,11.3,3.9,1.2,-3.8,65,46,29,30.47,30.23,9,3,16,0.00
2013-1-28,30.0,23.7,16.8,26.2,12.9,1.9,94,66,35,30.46,30.03,4,0,9,0.00
2013-1-29,32.8,29.2,24.3,31.2,27.0,22.3,95,92,86,30.20,30.03,4,0,4,0.12
2013-1-30,60.6,47.9,32.5,57.2,46.3,31.2,98,94,86,30.16,29.46,13,2,22,0.18
2013-1-31,59.9,47.4,29.6,58.2,37.8,15.2,95,71,43,29.59,28.97,17,4,28,0.57
2013-2-1,32.0,27.7,21.3,18.1,9.4,4.4,62,46,35,30.08,29.59,13,3,23,0.00
2013-2-2,28.8,23.4,16.0,12.1,7.3,3.4,59,50,40,30.26,30.05,8,1,14,0.00
2013-2-3,25.5,23.6,20.3,23.2,19.2,11.9,92,84,56,30.06,29.74,6,1,9,0.00
2013-2-4,28.6,23.3,18.5,20.4,11.4,5.1,91,62,41,29.95,29.72,14,2,22,0.01
2013-2-5,27.9,23.9,19.3,22.1,13.5,7.7,90,65,51,30.03,29.94,10,1,13,0.00
2013-2-6,37.3,29.1,23.5,25.9,19.1,6.2,93,69,42,30.30,29.93,10,1,15,0.03
2013-2-7,29.4,23.1,15.2,16.1,4.3,0.9,65,45,32,30.53,30.30,8,1,14,0.00
2013-2-8,32.0,27.3,16.7,30.5,23.6,11.9,96,86,62,30.50,29.62,11,2,17,0.04
2013-2-9,20.2,17.4,13.7,17.6,14.3,6.3,93,87,71,30.19,29.59,14,5,23,0.00
2013-2-10,39.3,20.2,6.6,15.9,8.7,1.0,90,64,23,30.41,30.20,6,1,15,0.21
2013-2-11,41.0,29.0,10.2,40.0,26.4,7.4,97,90,70,30.36,29.61,2,0,4,0.29
2013-2-12,44.5,38.0,29.4,36.7,29.2,24.4,97,71,54,29.88,29.61,17,2,21,0.04
2013-2-13,42.4,32.4,21.6,27.2,24.4,19.1,92,74,51,29.87,29.70,7,1,12,0.00
2013-2-14,44.3,33.8,26.4,27.5,23.5,21.0,86,68,40,30.00,29.71,6,0,11,0.00
2013-2-15,52.0,37.0,24.3,35.1,30.0,21.6,95,78,50,30.00,29.90,12,1,17,0.00
2013-2-16,37.6,33.4,28.1,31.5,27.0,17.5,96,78,56,29.96,29.73,9,1,15,0.03
2013-2-17,29.0,20.9,16.1,19.8,11.1,1.1,90,67,46,29.73,29.39,17,5,27,0.00
2013-2-18,30.5,21.5,13.2,3.7,1.3,-1.8,61,42,25,30.16,29.68,16,4,24,0.00
2013-2-19,46.4,34.9,19.9,41.4,23.6,2.8,97,65,42,30.17,29.58,7,1,12,0.38
2013-2-20,40.5,31.7,25.4,39.7,20.5,11.5,97,64,43,29.78,29.53,17,3,21,0.00
2013-2-21,32.2,26.5,23.3,15.6,13.6,10.8,70,58,46,30.19,29.77,14,3,25,0.00
2013-2-22,39.9,30.9,22.6,25.6,21.1,15.5,84,68,46,30.40,30.20,7,1,13,0.00
2013-2-23,38.2,33.2,27.0,31.5,28.7,23.2,95,84,72,30.34,29.93,6,0,6,0.02
2013-2-24,35.9,33.0,30.0,35.1,31.9,28.7,97,96,94,29.93,29.70,6,1,20,0.60
2013-2-25,40.7,33.6,29.0,32.2,29.7,27.8,96,86,68,30.25,29.90,4,0,6,0.20
2013-2-26,42.7,34.8,25.3,35.2,29.1,24.1,97,81,58,30.35,30.17,5,0,10,0.00
2013-2-27,40.1,38.3,36.2,39.0,36.7,31.4,97,94,81,30.17,29.57,9,2,18,1.39
2013-2-28,47.6,37.2,32.9,37.7,34.3,31.6,96,89,68,29.65,29.53,5,0,10,0.01
2013-3-1,40.0,36.6,31.3,34.5,30.4,28.0,96,79,66,29.69,29.54,8,1,12,0.00
2013-3-2,41.6,36.6,30.8,30.2,27.7,25.4,80,70,60,29.68,29.63,9,1,11,0.00
2013-3-3,39.6,34.4,31.2,32.5,28.7,24.9,92,80,72,29.65,29.57,7,1,12,0.00
2013-3-4,38.8,33.5,28.9,28.3,24.7,21.4,85,70,56,29.74,29.58,14,4,18,0.00
2013-3-5,44.3,35.6,30.3,32.7,27.7,22.7,93,73,57,30.08,29.75,9,2,16,0.00
2013-3-6,39.6,36.0,33.9,35.0,32.6,29.5,95,87,72,30.12,30.05,12,2,17,0.12
2013-3-7,35.3,31.7,29.7,30.7,29.1,27.7,94,90,77,30.09,30.00,12,3,20,0.16
2013-3-8,38.9,32.1,28.6,31.4,28.1,23.1,96,86,60,30.16,29.95,11,2,24,0.10
2013-3-9,46.7,34.5,25.2,32.1,25.4,19.3,95,71,48,30.36,30.16,6,1,13,0.41
2013-3-10,42.6,32.8,20.9,33.1,28.3,19.2,96,84,65,30.43,30.32,5,0,6,0.01
2013-3-11,52.9,42.0,34.2,40.2,35.7,31.4,94,79,53,30.34,30.15,9,1,12,0.00
2013-3-12,55.9,48.9,41.3,52.7,46.9,39.5,97,93,81,30.17,29.73,11,1,16,0.33
2013-3-13,52.2,43.5,32.1,51.1,31.7,21.0,96,66,35,29.79,29.70,10,2,22,0.01
2013-3-14,35.6,30.6,21.9,24.6,16.1,7.3,72,55,42,29.84,29.71,14,3,23,0.00
2013-3-15,39.9,29.1,18.8,27.4,13.1,4.3,75,52,28,29.88,29.64,11,3,18,0.00
2013-3-16,38.4,33.0,27.2,26.3,15.7,9.2,74,50,30,29.86,29.67,10,2,13,0.00
2013-3-17,36.8,29.5,22.1,16.7,11.7,5.1,76,49,29,30.33,29.89,12,2,17,0.00
2013-3-18,37.5,27.5,16.6,26.0,10.7,0.6,91,50,29,30.47,30.26,5,1,11,0.00
2013-3-19,34.7,31.7,27.3,33.4,30.4,25.2,96,95,92,30.26,29.62,10,2,15,0.33
2013-3-20,38.0,29.5,23.3,25.2,21.7,18.8,93,74,47,29.82,29.70,11,2,20,0.36
2013-3-21,37.2,28.7,20.2,28.5,21.8,14.6,92,77,46,29.83,29.62,5,0,9,0.15
2013-3-22,39.3,32.6,26.1,25.9,20.2,14.8,93,61,39,29.75,29.61,10,2,13,0.06
2013-3-23,43.0,34.6,26.6,23.5,20.0,17.4,77,57,38,29.79,29.64,13,3,20,0.00
2013-3-24,46.5,37.4,29.4,29.8,24.1,20.0,85,60,42,29.82,29.73,14,2,15,0.00
2013-3-25,42.0,35.8,29.0,34.9,30.0,25.1,91,79,71,29.78,29.53,7,1,11,0.00
2013-3-26,49.7,40.3,34.0,30.5,25.4,20.5,81,57,33,29.79,29.54,9,1,13,0.00
2013-3-27,52.8,42.3,30.2,32.2,25.5,21.9,72,53,34,29.87,29.75,14,2,18,0.00
2013-3-28,46.8,41.1,35.7,36.1,33.6,30.2,92,75,54,30.02,29.87,7,1,12,0.02
2013-3-29,55.4,45.1,32.5,36.7,32.9,28.6,87,64,39,30.05,29.97,9,1,17,0.00
2013-3-30,56.7,45.5,32.8,33.7,25.9,15.6,83,51,21,30.11,30.00,9,2,21,0.00
2013-3-31,59.7,44.4,26.4,40.4,27.7,21.6,85,56,26,30.13,29.76,12,2,19,0.01
2013-4-1,61.4,46.7,34.4,47.2,37.2,12.8,96,72,37,29.79,29.50,11,2,20,0.12
2013-4-2,39.7,33.7,28.7,18.3,13.8,10.1,55,44,31,29.95,29.80,16,4,23,0.00
2013-4-3,45.1,35.9,29.1,18.3,14.1,9.2,60,42,23,30.17,29.93,14,4,26,0.00
2013-4-4,55.4,41.1,26.9,26.5,17.9,13.2,65,42,21,30.31,30.05,11,2,14,0.00
2013-4-5,60.2,45.3,36.5,31.8,27.5,22.3,73,52,25,30.06,29.62,10,2,18,0.00
2013-4-6,46.3,36.9,28.8,26.2,13.2,5.3,60,40,19,30.35,29.89,14,3,20,0.00
2013-4-7,54.3,40.2,25.6,40.0,27.5,16.5,82,62,36,30.34,30.01,12,2,18,0.00
2013-4-8,65.6,51.6,41.5,42.8,40.4,35.8,94,68,34,30.10,29.95,7,1,11,0.00
2013-4-9,70.1,55.1,45.5,53.7,44.8,39.4,95,71,43,30.09,29.86,13,2,20,0.13
2013-4-10,62.1,50.5,45.4,50.4,45.4,41.7,100,83,62,30.02,29.87,5,0,7,0.22
2013-4-11,51.4,46.5,42.1,46.9,40.2,27.9,96,80,50,30.15,29.83,4,0,7,0.06
2013-4-12,42.0,38.1,36.0,37.3,35.1,31.4,96,89,67,30.18,29.80,10,2,14,0.53
2013-4-13,52.5,42.1,34.6,41.0,36.8,33.2,96,83,54,29.94,29.77,10,1,11,0.04
2013-4-14,52.1,44.9,36.9,40.6,33.2,27.6,92,65,41,30.22,29.92,10,2,19,0.00
2013-4-15,56.6,43.9,29.6,39.2,33.8,27.0,92,69,45,30.40,30.22,6,1,7,0.00
2013-4-16,63.6,51.3,35.5,51.2,42.4,33.8,96,73,51,30.41,30.06,10,2,16,0.00
2013-4-17,66.3,57.7,46.0,52.7,38.7,29.6,86,52,28,30.33,30.05,11,2,14,0.00
2013-4-18,62.0,50.7,37.6,44.6,35.5,30.2,79,58,37,30.44,30.15,8,1,14,0.00
2013-4-19,74.4,63.1,51.9,62.9,57.6,44.6,97,83,62,30.15,29.65,19,3,23,0.00
2013-4-20,66.1,53.3,43.5,62.7,41.7,24.6,95,68,41,30.21,29.60,10,2,15,0.42
2013-4-21,53.2,42.2,33.2,31.0,24.4,20.3,78,50,29,30.69,30.22,12,2,17,0.00
2013-4-22,50.3,41.2,31.4,35.9,30.8,23.9,90,69,36,30.77,30.61,9,2,14,0.00
2013-4-23,41.4,40.1,37.8,41.0,37.5,31.6,100,90,76,30.60,30.14,7,1,12,0.05
2013-4-24,75.6,55.0,40.7,53.2,45.3,39.7,96,74,29,30.14,29.79,9,2,16,0.01
2013-4-25,63.8,54.5,42.1,52.3,37.8,25.3,93,57,24,30.27,29.83,12,2,17,0.04
2013-4-26,58.3,48.0,36.5,40.9,36.2,30.3,89,66,43,30.44,30.28,7,1,10,0.00
2013-4-27,63.6,50.8,34.7,42.2,37.4,33.4,97,64,37,30.43,30.30,4,1,9,0.00
2013-4-28,67.5,53.7,36.7,43.8,37.2,28.5,94,58,32,30.35,30.23,6,1,11,0.00
2013-4-29,69.6,56.9,44.1,49.2,39.3,25.8,91,56,28,30.28,30.19,7,1,12,0.00
2013-4-30,68.8,55.1,40.8,40.7,31.9,21.7,84,47,18,30.38,30.26,4,0,9,0.00
2013-5-1,67.6,53.4,35.7,41.3,35.9,32.3,92,56,29,30.48,30.38,4,0,7,0.00
2013-5-2,77.0,54.7,40.5,48.8,41.4,37.4,95,65,30,30.49,30.36,7,1,10,0.00
2013-5-3,60.1,49.6,40.9,47.3,41.5,37.7,92,75,57,30.54,30.39,7,1,13,0.00
2013-5-4,58.7,47.5,36.9,45.9,40.1,35.3,96,77,53,30.39,30.32,5,1,11,0.00
2013-5-5,58.9,47.0,35.0,44.1,39.1,33.5,100,76,52,30.35,30.27,4,0,9,0.00
2013-5-6,67.2,49.4,34.3,52.4,43.6,33.0,97,82,49,30.30,30.16,4,0,6,0.00
2013-5-7,75.3,61.4,42.1,61.0,52.3,41.0,98,75,50,30.18,30.10,7,0,9,0.00
2013-5-8,71.2,60.7,50.9,64.1,57.5,49.6,98,89,72,30.20,30.05,4,0,7,0.13
2013-5-9,68.1,59.0,56.3,62.5,57.5,55.0,98,95,76,30.06,29.89,2,0,4,0.73
2013-5-10,77.2,64.4,54.8,61.7,57.7,54.2,98,81,49,29.96,29.90,4,0,10,0.01
2013-5-11,70.4,63.5,58.4,62.6,59.1,54.8,95,86,73,29.92,29.70,6,1,16,0.04
2013-5-12,70.8,60.8,50.1,60.0,51.5,30.7,98,74,40,29.82,29.56,10,1,18,0.11
2013-5-13,57.8,48.9,39.9,35.6,32.1,28.1,81,54,33,30.04,29.82,9,1,16,0.00
2013-5-14,57.7,48.6,38.3,36.9,32.7,29.6,79,56,36,30.06,29.98,10,1,14,0.00
2013-5-15,65.9,51.0,35.7,52.0,40.5,32.8,92,71,34,30.06,29.68,11,1,14,0.02
2013-5-16,80.3,65.1,46.7,51.1,43.6,34.3,97,54,23,29.80,29.63,12,2,19,0.00
2013-5-17,69.0,58.5,48.8,46.8,43.2,37.9,85,58,35,30.22,29.81,11,1,13,0.00
2013-5-18,71.5,58.7,41.8,51.9,45.3,37.9,95,64,32,30.31,30.22,5,0,10,0.00
2013-5-19,70.2,55.9,46.7,55.8,50.5,44.7,96,83,51,30.36,30.23,5,0,7,0.10
2013-5-20,81.6,66.1,55.1,68.3,60.5,54.0,98,84,57,30.23,29.91,9,1,11,0.06
2013-5-21,79.2,60.9,50.5,68.9,57.4,49.4,98,89,65,30.03,29.87,4,0,9,0.15
2013-5-22,66.8,55.8,49.7,62.1,53.4,48.6,97,92,78,30.07,29.90,5,0,10,0.19
2013-5-23,75.5,63.5,53.7,70.0,60.9,52.6,98,92,79,29.94,29.81,10,1,15,0.18
2013-5-24,71.5,62.4,49.0,66.8,60.6,47.9,98,94,78,29.83,29.66,7,1,10,0.50
2013-5-25,50.8,46.8,40.5,49.9,45.7,38.4,100,96,92,29.82,29.71,11,2,16,0.23
2013-5-26,57.0,47.6,38.9,43.3,39.9,37.2,95,76,53,30.11,29.72,13,2,20,0.03
2013-5-27,71.4,56.4,39.2,45.8,40.5,36.0,95,61,29,30.18,30.07,16,1,16,0.00
2013-5-28,72.5,58.3,41.2,54.0,46.9,39.6,97,69,37,30.24,30.16,4,0,6,0.00
2013-5-29,69.2,62.1,58.1,64.7,59.6,53.1,97,91,81,30.19,30.00,4,0,5,0.82
2013-5-30,87.1,73.9,61.0,71.5,66.4,60.2,98,80,54,30.08,30.00,9,1,16,0.01
2013-5-31,92.6,79.6,62.9,72.3,66.6,61.5,97,68,39,30.09,29.92,10,1,11,0.00
2013-6-1,91.7,79.9,65.4,71.7,66.8,62.0,90,66,44,29.97,29.85,7,1,14,0.00
2013-6-2,89.1,77.9,68.5,71.8,67.2,64.4,90,71,45,29.88,29.71,13,2,21,0.00
2013-6-3,77.4,68.9,61.6,69.2,63.1,45.5,96,82,54,29.85,29.75,4,0,8,0.42
2013-6-4,70.8,60.8,48.5,50.3,46.0,41.6,81,59,43,30.10,29.83,10,1,16,0.00
2013-6-5,74.0,61.9,47.9,54.5,48.7,43.8,93,64,40,30.19,30.09,7,0,10,0.00
2013-6-6,74.3,63.9,53.2,59.3,51.2,48.0,86,64,45,30.19,30.10,4,0,7,0.00
2013-6-7,59.5,55.5,53.3,56.2,54.1,51.8,97,95,87,30.12,29.83,3,0,6,1.52
2013-6-8,78.5,62.5,52.7,65.8,57.9,51.9,100,86,62,30.00,29.63,11,1,14,0.45
2013-6-9,79.2,67.1,54.8,61.8,57.2,53.7,98,73,45,30.17,30.00,6,1,12,0.00
2013-6-10,68.9,61.5,54.2,60.8,57.1,52.8,97,86,67,30.21,30.03,4,0,5,0.52
2013-6-11,62.4,57.9,55.5,58.8,56.4,54.7,98,95,87,30.03,29.58,7,0,9,0.92
2013-6-12,69.4,61.6,56.0,58.4,55.9,53.3,98,83,62,29.82,29.57,16,1,19,0.05
2013-6-13,67.3,57.3,50.6,59.5,53.9,48.9,97,89,68,29.83,29.69,2,0,5,0.61
2013-6-14,73.4,59.4,51.2,60.2,54.5,50.1,97,85,53,29.77,29.65,5,0,10,0.72
2013-6-15,78.2,66.1,54.0,55.3,50.2,43.7,94,60,30,29.94,29.77,7,1,13,0.00
2013-6-16,75.0,65.9,54.4,62.8,55.1,47.3,90,69,45,29.94,29.71,6,0,10,0.00
2013-6-17,84.6,68.5,57.1,65.9,60.7,55.5,97,79,42,29.91,29.78,9,1,19,0.94
2013-6-18,74.9,62.8,57.9,65.3,60.1,57.1,98,91,69,29.95,29.89,4,0,7,0.25
2013-6-19,72.8,63.1,55.0,58.0,54.3,49.2,98,76,45,30.15,29.92,4,0,9,0.05
2013-6-20,78.3,65.3,49.4,57.4,52.5,48.0,96,67,40,30.27,30.15,6,0,10,0.00
2013-6-21,83.6,70.2,58.3,65.5,59.4,54.1,86,70,41,30.25,30.18,7,1,10,0.00
2013-6-22,83.4,72.4,60.3,68.2,61.3,57.0,90,70,47,30.22,30.11,8,1,11,0.00
2013-6-23,88.8,76.5,64.5,75.5,66.3,57.8,82,71,57,30.16,29.99,6,1,13,0.00
2013-6-24,91.8,79.8,70.0,76.1,70.9,66.7,94,76,53,30.02,29.87,6,1,13,0.04
2013-6-25,90.4,79.2,68.8,75.0,69.3,65.5,94,73,50,29.92,29.72,10,1,13,0.00
2013-6-26,83.0,74.5,68.8,75.2,70.1,66.5,96,87,65,29.85,29.72,5,0,9,0.32
2013-6-27,72.5,65.8,61.7,67.7,64.1,60.8,98,94,84,29.88,29.76,2,0,4,0.11
2013-6-28,82.3,70.5,60.3,75.0,67.5,59.5,99,91,72,29.77,29.49,8,0,14,0.18
2013-6-29,83.5,75.1,70.3,73.2,70.2,67.9,96,86,64,29.60,29.51,9,1,12,0.00
2013-6-30,85.0,76.3,68.8,75.4,70.6,67.0,95,83,68,29.93,29.72,2,0,13,0.00
2013-7-1,82.8,74.4,71.0,77.3,72.3,69.8,97,93,78,30.08,29.93,4,0,9,0.31
2013-7-2,83.8,73.7,61.8,75.3,70.1,60.1,96,89,73,30.22,30.07,5,0,10,0.01
2013-7-3,88.0,76.0,61.1,76.2,69.9,59.9,96,82,63,30.21,30.13,9,1,14,0.00
2013-7-4,91.5,82.1,71.9,77.7,74.2,70.4,97,78,58,30.20,30.09,5,1,11,0.00
2013-7-5,92.9,84.2,75.4,77.8,74.6,71.9,90,74,55,30.15,30.03,6,1,13,0.00
2013-7-6,89.9,81.6,73.0,77.1,73.0,64.7,90,76,56,30.07,29.97,6,1,14,0.00
2013-7-7,91.4,78.2,68.7,78.7,71.1,64.4,95,80,59,30.02,29.90,4,0,7,0.02
2013-7-8,85.1,76.3,67.4,77.7,72.2,65.0,97,88,71,30.07,29.90,4,0,6,0.01
2013-7-9,72.6,68.2,64.3,68.3,65.3,62.8,96,91,84,30.11,30.04,3,0,5,0.00
2013-7-10,83.9,73.7,66.5,77.6,70.6,64.3,98,90,76,30.08,29.79,7,0,12,0.03
2013-7-11,81.3,75.7,70.9,75.7,72.5,68.9,97,90,76,29.92,29.77,3,0,6,0.00
2013-7-12,76.9,70.2,65.8,69.2,62.5,57.6,96,77,60,30.20,29.93,3,0,12,0.00
2013-7-13,78.4,70.8,65.5,71.4,66.5,61.7,96,87,77,30.31,30.20,2,0,5,0.01
2013-7-14,90.9,78.3,68.1,75.6,72.1,66.9,98,83,53,30.30,30.20,4,0,10,0.00
2013-7-15,91.0,79.2,68.9,77.0,72.4,67.7,98,81,55,30.20,30.09,3,0,10,0.00
2013-7-16,92.9,79.9,67.7,74.9,70.0,65.4,95,74,48,30.16,30.10,4,0,7,0.00
2013-7-17,94.0,82.0,69.0,75.6,71.6,67.5,96,73,45,30.17,29.99,4,0,7,0.00
2013-7-18,91.3,82.0,75.7,76.3,72.8,70.2,89,75,54,30.00,29.94,6,0,7,0.00
2013-7-19,96.4,85.4,73.0,78.8,74.8,70.5,96,73,47,29.94,29.71,11,1,15,0.00
2013-7-20,93.0,83.8,74.6,78.9,74.7,65.4,90,75,55,29.80,29.64,6,0,13,0.00
2013-7-21,83.1,74.5,68.1,69.4,65.7,62.8,94,75,55,29.99,29.80,2,0,7,0.00
2013-7-22,83.5,72.6,65.1,72.2,67.5,64.2,97,85,62,30.01,29.89,3,0,6,0.00
2013-7-23,81.7,72.1,69.2,76.9,70.8,66.7,98,96,84,29.89,29.54,4,0,11,0.66
2013-7-24,84.4,75.5,66.3,74.4,68.4,56.1,99,80,57,29.96,29.58,11,1,11,0.00
2013-7-25,66.0,60.3,58.1,58.0,54.8,49.7,97,83,67,30.11,29.96,5,0,11,0.72
2013-7-26,70.8,64.4,58.7,68.0,62.5,57.8,98,94,86,30.07,29.94,9,1,11,0.41
2013-7-27,84.0,71.8,58.7,69.4,63.8,57.3,98,78,50,30.06,29.99,5,0,11,0.00
2013-7-28,82.0,71.4,65.0,74.2,67.9,63.2,97,89,73,30.02,29.96,3,0,6,0.02
2013-7-29,83.9,72.4,66.8,75.9,68.3,65.2,97,88,65,30.04,29.96,6,0,10,0.25
2013-7-30,81.9,71.1,59.7,67.4,61.4,58.0,97,74,45,30.10,30.03,9,1,11,0.01
2013-7-31,83.0,71.2,59.3,65.7,60.7,54.9,94,72,43,30.14,30.04,7,0,7,0.00
2013-8-1,82.0,69.7,61.8,67.4,63.4,60.4,96,82,55,30.05,29.88,5,0,10,0.01
2013-8-2,82.1,71.0,64.1,70.1,63.8,60.3,97,80,49,29.88,29.79,8,1,11,0.44
2013-8-3,78.7,70.3,64.1,65.6,63.4,60.8,94,80,60,29.87,29.78,7,1,12,0.00
2013-8-4,79.1,67.5,58.7,63.7,58.3,54.3,92,74,48,29.90,29.77,7,0,10,0.00
2013-8-5,75.4,63.7,53.7,55.2,50.6,45.5,91,65,36,30.06,29.89,14,1,14,0.00
2013-8-6,78.0,63.7,48.5,59.2,52.5,46.7,96,70,42,30.16,30.05,4,0,6,0.00
2013-8-7,80.5,67.5,54.0,62.7,56.2,52.4,98,71,39,30.19,30.11,6,0,10,0.00
2013-8-8,80.2,71.4,64.7,72.3,66.4,56.0,95,85,73,30.14,30.01,5,0,9,0.05
2013-8-9,74.8,72.4,70.9,73.9,71.1,69.1,98,96,93,30.03,29.75,6,0,11,1.12
2013-8-10,82.3,72.8,62.1,71.3,63.4,55.9,98,75,48,30.02,29.80,7,1,16,0.00
2013-8-11,79.4,66.2,52.4,61.9,56.1,51.0,97,73,45,30.09,30.01,6,0,11,0.00
2013-8-12,81.6,69.8,59.3,62.5,59.7,57.0,95,73,46,30.03,29.93,6,0,12,0.00
2013-8-13,76.5,68.1,63.6,68.3,64.0,61.5,95,87,67,29.93,29.69,3,0,5,0.01
2013-8-14,74.1,65.7,59.3,63.4,55.8,51.8,96,72,50,29.97,29.67,13,1,14,0.00
2013-8-15,76.2,64.3,52.1,57.5,53.0,50.1,93,70,43,30.12,29.97,8,1,13,0.00
2013-8-16,78.7,66.2,54.5,59.9,55.5,51.9,92,71,42,30.20,30.11,5,1,11,0.00
2013-8-17,80.0,67.8,55.7,64.1,58.4,53.7,95,74,49,30.28,30.20,2,0,7,0.00
2013-8-18,78.9,68.4,58.2,66.4,60.7,56.5,96,77,49,30.28,30.09,3,0,5,0.00
2013-8-19,80.7,70.2,58.6,66.4,61.3,57.3,98,75,51,30.09,29.95,4,0,10,0.00
2013-8-20,85.6,73.5,61.8,66.9,62.8,59.2,93,71,43,30.09,29.98,5,0,7,0.00
2013-8-21,88.2,74.1,59.4,68.7,64.1,58.0,97,74,47,30.15,30.02,6,0,8,0.00
2013-8-22,85.9,75.1,64.2,73.6,67.8,62.2,94,79,54,30.03,29.82,10,1,10,0.00
2013-8-23,80.9,71.8,62.0,69.4,61.4,50.3,94,71,43,30.13,29.82,5,0,13,0.00
2013-8-24,77.4,64.8,53.6,55.7,49.8,45.2,86,61,33,30.34,30.14,3,0,7,0.00
2013-8-25,82.9,67.3,49.9,58.4,52.7,47.8,96,64,33,30.37,30.19,9,0,9,0.00
2013-8-26,81.2,71.6,64.8,67.7,62.7,56.6,86,74,60,30.19,29.87,6,0,13,0.00
2013-8-27,83.8,73.6,65.0,71.7,67.8,63.3,97,83,62,29.90,29.83,3,0,5,0.02
2013-8-28,85.2,70.5,60.5,70.7,64.7,59.7,98,84,59,29.99,29.86,2,0,6,0.00
2013-8-29,65.5,64.0,61.2,64.1,61.4,57.7,96,91,86,30.08,29.95,6,0,13,0.00
2013-8-30,84.0,70.6,60.9,69.1,64.0,58.2,92,81,59,30.04,29.83,5,0,9,0.00
2013-8-31,81.0,74.0,68.5,75.0,70.7,66.8,97,90,78,29.84,29.79,6,0,10,0.05
2013-9-1,78.9,72.7,69.1,75.8,70.8,67.0,98,94,85,29.89,29.79,3,0,6,0.73
2013-9-2,82.0,74.3,70.7,76.1,71.5,68.6,98,91,77,29.88,29.72,6,0,11,0.01
2013-9-3,81.4,73.4,62.5,71.8,68.3,57.9,97,85,66,29.82,29.69,7,0,10,0.00
2013-9-4,79.7,68.0,56.8,61.9,57.9,55.1,96,73,45,29.93,29.81,10,1,13,0.00
2013-9-5,70.6,62.5,49.6,61.3,54.7,44.4,93,77,43,30.16,29.87,5,0,9,0.05
2013-9-6,69.4,56.6,43.4,47.7,44.0,39.0,94,66,39,30.26,30.10,5,0,10,0.00
2013-9-7,78.9,63.4,48.2,57.3,51.1,45.4,91,67,40,30.10,29.86,3,0,13,0.00
2013-9-8,73.4,64.1,49.5,63.2,52.9,42.3,92,69,40,30.11,29.75,10,1,17,0.01
2013-9-9,69.1,56.9,41.3,50.9,45.0,39.2,95,67,40,30.25,30.10,8,0,10,0.00
2013-9-10,74.7,65.8,54.5,70.0,62.1,50.2,95,88,81,30.17,30.04,6,0,11,0.06
2013-9-11,95.0,81.2,67.9,78.0,72.5,66.6,98,77,48,30.08,29.93,8,1,16,0.00
2013-9-12,87.4,77.0,67.2,75.9,70.6,65.7,96,81,61,29.96,29.67,6,1,14,0.70
2013-9-13,78.7,68.1,59.0,68.7,64.3,54.5,98,88,64,29.76,29.56,7,0,13,0.13
2013-9-14,65.8,59.7,51.4,56.0,53.3,49.2,94,80,66,30.07,29.76,7,1,11,0.01
2013-9-15,70.4,57.9,45.5,53.6,49.6,44.2,97,76,47,30.17,30.06,5,0,10,0.00
2013-9-16,68.2,57.8,47.7,56.3,50.6,38.9,91,77,60,30.26,30.02,5,0,11,0.00
2013-9-17,63.6,50.4,38.9,45.7,40.3,35.8,90,70,44,30.44,30.26,5,0,9,0.00
2013-9-18,73.5,55.9,39.9,51.2,45.1,38.6,100,71,36,30.34,30.15,5,0,9,0.00
2013-9-19,79.1,61.0,47.1,57.7,51.8,44.7,98,75,41,30.15,30.04,4,0,7,0.00
2013-9-20,80.1,62.4,47.8,63.0,54.2,46.7,98,78,45,30.10,30.00,2,0,5,0.00
2013-9-21,75.9,65.0,51.5,65.9,60.0,50.1,98,85,60,30.03,29.74,9,1,13,0.00
2013-9-22,70.5,64.1,51.9,67.2,57.6,46.6,97,80,52,29.84,29.61,6,1,14,0.57
2013-9-23,62.7,52.4,44.8,47.5,42.9,39.6,86,71,52,30.01,29.84,10,1,13,0.00
2013-9-24,67.1,52.4,40.8,47.2,42.9,38.3,92,72,45,30.00,29.82,9,1,12,0.00
2013-9-25,66.7,54.4,43.1,52.8,47.3,41.2,95,78,58,30.00,29.89,4,0,9,0.00
2013-9-26,67.3,57.0,51.7,53.5,49.5,47.2,93,77,53,30.14,29.99,4,0,5,0.00
2013-9-27,66.7,57.0,47.4,55.5,51.6,45.8,95,83,64,30.27,30.14,5,0,6,0.00
2013-9-28,73.4,56.8,44.7,58.6,50.9,43.6,98,83,52,30.34,30.27,3,0,7,0.00
2013-9-29,68.0,52.3,42.8,54.5,47.4,41.7,99,85,50,30.28,30.14,3,0,5,0.00
2013-9-30,68.5,54.3,45.2,54.2,49.4,44.1,98,86,51,30.14,29.98,4,0,6,0.00
2013-10-1,76.4,58.7,44.3,56.7,50.6,43.2,98,78,43,29.98,29.86,9,0,11,0.00
2013-10-4,65.5,57.7,49.2,59.5,54.0,47.5,96,88,76,30.10,30.04,2,0,5,0.03
2013-10-5,67.8,61.3,57.2,59.7,57.2,55.9,96,87,69,30.14,30.06,2,0,4,0.00
2013-10-6,59.5,56.2,53.9,57.3,55.2,52.8,98,96,89,30.24,30.12,3,0,6,0.42
2013-10-7,76.5,65.4,56.7,71.2,63.0,55.1,99,92,76,30.14,29.82,10,1,22,0.13
2013-10-8,65.8,56.0,45.1,55.2,46.0,40.7,86,71,45,30.39,29.91,6,1,13,0.00
2013-10-9,62.0,49.5,40.5,49.1,43.6,38.8,99,81,55,30.49,30.38,7,0,9,0.00
2013-10-10,62.6,50.8,40.7,54.5,47.5,39.4,97,89,71,30.38,30.19,2,0,5,0.00
2013-10-11,71.5,56.2,47.2,57.4,48.7,39.6,100,79,35,30.19,30.11,4,0,7,0.00
2013-10-12,59.2,53.6,47.9,56.2,51.3,46.6,98,92,85,30.41,30.16,3,0,7,0.00
2013-10-13,60.0,49.9,39.2,51.0,45.8,37.9,98,87,64,30.46,30.39,2,0,6,0.00
2013-10-14,65.3,48.3,32.2,49.6,41.3,31.2,100,80,37,30.42,30.27,3,0,6,0.00
2013-10-15,66.6,55.0,45.3,57.1,50.6,44.0,97,86,64,30.28,30.19,3,0,5,0.00
2013-10-16,61.2,54.2,46.2,55.4,51.8,45.0,100,92,79,30.19,29.93,2,0,5,0.00
2013-10-17,73.4,60.3,51.6,62.4,56.9,50.6,98,89,63,29.93,29.73,4,0,10,0.01
2013-10-18,66.7,59.2,45.4,60.5,51.7,41.8,97,78,49,29.92,29.62,12,1,17,0.03
2013-10-19,66.2,53.0,40.0,48.2,43.3,38.4,96,72,43,29.99,29.76,6,0,9,0.00
2013-10-20,61.2,51.5,38.5,51.0,41.3,34.1,96,71,38,30.03,29.70,11,1,18,0.02
2013-10-21,66.6,50.2,34.7,44.8,40.2,33.2,97,71,40,30.13,30.01,7,0,10,0.00
2013-10-22,67.1,52.3,40.3,53.3,45.8,38.3,97,80,55,30.01,29.72,7,0,14,0.00
2013-10-23,50.5,44.2,34.6,38.2,35.4,32.5,94,72,52,29.81,29.61,4,0,5,0.00
2013-10-24,52.9,43.5,34.5,36.4,31.1,25.5,92,63,39,29.90,29.65,12,1,16,0.00
2013-10-25,49.4,39.0,30.2,35.2,29.5,26.7,93,70,45,30.17,29.90,7,1,14,0.00
2013-10-26,55.4,42.0,28.4,36.6,30.4,26.4,96,67,34,30.17,29.89,12,1,17,0.00
2013-10-27,53.6,46.4,36.1,39.9,35.3,29.7,93,67,45,30.08,29.82,9,1,15,0.01
2013-10-28,58.2,43.5,32.3,36.8,31.8,24.8,92,66,41,30.37,30.08,9,1,16,0.00
2013-10-29,49.0,35.6,27.8,31.5,26.0,21.7,94,70,38,30.46,30.36,4,0,6,0.00
2013-10-30,51.3,38.5,29.9,43.1,35.4,28.4,95,89,67,30.39,30.21,3,0,9,0.01
2013-10-31,61.4,47.3,31.2,58.7,45.5,29.9,98,94,84,30.26,29.81,5,0,10,0.01
2013-11-1,70.5,64.0,57.4,63.3,58.2,53.2,96,82,65,29.81,29.47,15,2,20,0.00
2013-11-2,66.6,54.8,46.1,54.0,46.0,41.7,94,75,42,29.74,29.60,5,0,10,0.01
2013-11-3,49.9,40.4,30.9,47.4,29.9,16.3,91,68,42,30.43,29.73,6,1,11,0.00
2013-11-4,43.0,31.3,23.0,21.8,18.9,15.7,89,62,34,30.72,30.43,4,0,7,0.00
2013-11-5,50.4,35.0,22.4,34.5,27.6,19.9,98,76,46,30.74,30.53,4,0,6,0.00
2013-11-6,61.2,49.5,36.9,49.7,41.5,32.8,90,75,51,30.53,30.05,9,1,14,0.00
2013-11-7,65.6,53.5,37.7,58.0,49.4,32.1,96,86,69,30.05,29.69,14,1,17,0.02
2013-11-8,47.8,38.1,28.7,34.4,27.5,22.1,88,66,50,30.11,29.82,15,1,15,0.00
2013-11-9,44.4,37.6,28.9,30.0,24.9,21.4,77,61,40,30.23,30.05,11,1,18,0.00
2013-11-10,55.4,44.4,36.8,43.5,36.6,29.9,95,75,55,30.04,29.75,12,1,15,0.01
2013-11-11,51.4,44.3,38.3,33.8,29.3,26.0,71,56,38,30.11,29.86,10,1,16,0.00
2013-11-12,48.4,34.8,26.6,39.1,25.5,15.8,92,69,54,30.20,29.90,9,2,15,0.01
2013-11-13,36.1,27.9,22.3,18.1,15.3,11.6,76,60,40,30.30,30.18,8,1,13,0.00
2013-11-14,49.9,37.3,27.8,27.0,22.0,16.5,69,55,36,30.18,30.05,11,1,14,0.00
2013-11-15,61.8,44.8,30.6,34.0,23.9,18.5,71,47,19,30.21,30.11,7,1,12,0.00
2013-11-16,60.5,43.6,33.2,33.5,30.4,25.3,92,63,29,30.33,30.19,5,0,7,0.00
2013-11-17,56.3,44.9,30.8,52.7,41.3,28.9,97,88,73,30.33,29.86,2,0,5,0.01
2013-11-18,65.2,57.0,44.0,61.3,48.1,32.0,100,74,47,29.85,29.53,11,1,16,0.00
2013-11-19,48.2,38.9,30.2,31.9,23.0,16.9,60,53,42,30.28,29.66,12,3,20,0.00
2013-11-20,40.8,30.8,22.4,17.5,16.1,13.8,79,55,34,30.64,30.29,12,1,15,0.00
2013-11-21,46.8,32.1,18.5,30.2,21.3,15.3,89,67,35,30.67,30.39,5,0,10,0.00
2013-11-22,45.8,42.8,37.9,45.5,40.4,30.1,100,92,73,30.38,29.83,1,0,4,0.01
2013-11-23,46.2,39.4,28.8,45.2,27.2,15.9,97,63,37,29.92,29.79,11,2,23,0.00
2013-11-24,28.8,23.4,19.1,17.1,4.8,-3.7,71,46,28,30.21,29.80,19,5,27,0.00
2013-11-25,32.2,23.9,15.5,16.9,3.5,-5.6,58,42,22,30.38,30.21,12,2,14,0.00
2013-11-26,41.3,35.0,29.9,40.2,23.5,16.1,96,64,48,30.35,30.05,9,1,12,0.12
2013-11-27,61.5,50.8,36.7,60.3,49.6,33.5,98,95,86,30.05,29.22,14,2,18,1.67
2013-11-28,36.6,30.1,23.2,33.1,17.2,6.8,87,59,37,30.45,29.46,17,3,21,0.00
2013-11-29,32.9,25.4,19.4,16.8,11.8,5.0,82,57,37,30.76,30.45,9,1,11,0.00
2013-11-30,33.0,23.3,13.9,24.3,15.2,8.2,89,71,56,30.81,30.44,4,0,6,0.00
2013-12-1,36.4,34.1,30.8,35.2,31.8,24.6,97,91,76,30.44,30.02,3,0,6,0.14
2013-12-2,38.1,36.3,35.1,37.2,35.5,34.3,98,97,97,30.03,29.94,4,0,5,0.01
2013-12-3,47.6,37.4,32.3,38.7,34.0,29.5,98,88,63,29.96,29.86,4,0,9,0.00
2013-12-4,42.3,33.5,27.4,31.6,28.0,26.2,96,82,57,30.21,29.96,7,1,12,0.01
2013-12-5,48.7,40.7,27.7,48.0,38.3,25.9,98,91,82,30.23,29.93,4,0,5,0.00
2013-12-6,54.6,47.3,33.0,54.0,43.8,29.6,98,88,54,30.16,29.87,6,1,12,0.25
2013-12-7,38.3,32.4,26.1,32.6,26.9,20.1,96,81,60,30.46,30.09,10,1,13,0.15
2013-12-8,29.3,26.7,19.8,20.8,17.5,15.4,89,68,56,30.61,30.46,5,0,6,0.00
2013-12-9,38.0,31.6,24.6,37.2,29.5,16.1,97,92,61,30.52,29.90,5,0,7,0.39
2013-12-10,33.1,30.4,24.1,32.3,27.5,15.1,97,89,64,30.01,29.80,11,1,14,0.02
2013-12-11,30.9,25.0,20.4,19.1,17.3,15.3,84,73,56,30.22,30.01,13,1,19,0.00
2013-12-12,24.2,18.7,10.5,17.6,7.8,1.0,84,64,39,30.29,30.08,10,1,16,0.00
2013-12-13,27.7,20.5,11.7,17.6,11.2,1.4,82,67,55,30.42,30.01,9,2,15,0.00
2013-12-14,27.8,14.6,9.0,26.6,6.1,-4.0,95,70,51,30.63,30.17,6,1,10,0.00
2013-12-15,33.3,26.7,19.8,32.4,24.9,17.4,97,93,84,30.17,29.44,10,1,15,0.00
2013-12-16,27.2,22.7,13.8,21.9,13.3,6.9,91,68,48,30.22,29.76,10,2,14,0.00
2013-12-17,18.6,11.3,0.1,16.7,7.3,-3.4,92,84,63,30.31,29.96,7,1,12,0.00
2013-12-18,33.3,23.4,14.7,21.7,18.0,12.1,91,80,59,30.09,29.89,9,1,14,0.05
2013-12-19,42.1,31.0,24.0,27.8,24.0,19.6,89,76,51,30.13,29.96,7,1,16,0.30
2013-12-20,52.9,39.7,27.7,38.0,32.4,25.7,94,76,52,30.14,29.91,6,0,10,0.55
2013-12-21,56.0,45.9,40.1,47.7,40.8,34.0,96,83,70,29.97,29.87,10,0,12,0.00
2013-12-22,48.2,38.5,33.3,47.7,37.7,32.5,98,97,95,30.05,29.80,6,0,15,0.01
2013-12-23,36.4,32.8,31.2,35.9,32.1,30.5,98,98,97,30.11,29.97,3,0,9,0.74
2013-12-24,36.1,31.4,25.5,35.3,22.4,14.6,97,70,52,30.21,30.06,7,1,11,0.00
2013-12-25,25.5,17.8,13.1,15.9,6.2,0.9,83,61,46,30.56,30.21,11,2,15,0.00
2013-12-26,33.2,23.9,14.2,30.0,20.2,9.1,94,86,76,30.53,30.10,4,0,11,0.00
2013-12-27,32.5,25.6,18.3,22.4,19.9,16.1,94,79,61,30.29,30.20,6,1,12,0.02
2013-12-28,46.0,31.7,22.1,29.0,24.7,19.0,91,76,49,30.23,30.00,11,1,13,0.02
2013-12-29,41.9,34.4,26.1,37.2,31.4,24.1,96,89,69,30.05,29.42,8,1,15,1.20
2013-12-30,41.3,32.2,17.1,35.4,23.7,7.7,97,73,46,30.18,29.52,15,2,21,0.00
2013-12-31,24.0,17.6,12.2,15.6,5.8,-4.1,80,60,45,30.19,30.04,5,1,11,0.00
2014-1-1,26.8,20.1,12.1,15.4,9.1,5.8,84,63,46,30.40,30.20,9,1,16,0.00
2014-1-2,20.3,10.9,-0.3,15.0,7.4,-4.0,89,85,70,30.38,29.87,10,2,16,0.00